Location: Las Brisas Observatory
(38.8767°N, 105.2775°W)
Time: 20:30:11
(UTC-07:00)

Hubble Space Telescope - Visible Passes

Search period start: 22 January 2019 00:00
Search period end: 01 February 2019 00:00
Orbit: 537 x 540 km, 28.5° (Epoch: 22 January)

Date Brightness Start Highest point End Pass type
(mag) Time Alt. Az. Time Alt. Az. Time Alt. Az.
22 Jan 3.5 04:34:05 14° SE 04:34:05 14° SE 04:34:59 10° SE visible
22 Jan 3.0 06:10:03 10° SW 06:12:37 16° S 06:15:11 10° SSE visible
23 Jan 3.8 04:24:15 11° SE 04:24:15 11° SE 04:24:27 10° SE visible
23 Jan 3.1 05:59:44 10° SW 06:02:02 15° SSW 06:04:21 10° SSE visible
24 Jan 3.1 05:49:45 10° SW 05:51:28 13° SSW 05:53:22 10° SSE visible
25 Jan 3.2 05:39:55 10° SSW 05:40:53 11° SSW 05:42:06 10° S visible
